CAPE
0 0 0 0 0 0 0 0 0 0 53 24 126 484 816 1063 1385 789 912 1138 593 529 550 674 760 768 878 973 831 774 753 248
0 0 0 0 0 0 0 0 0 3 26 22 52 209 1069 933 1525 1254 1120 369 202 128 118 38 49 41 33 12 2 0 0 0
0 0 0 0 0 0 0 0 1 8 6 81 91 118 929 955 1403 1454 548 76 35 1 0 0 0 0 0 0 0 0 0 0
0 0 0 0 0 0 0 10 17 28 45 7 152 229 1205 910 1180 849 122 1 0 0 0 0 0 0 0 0 0 0 0 0
12 0 0 11 2 0 2 13 49 61 23 168 156 451 1091 1037 768 387 25 0 0 0 0 0 0 0 0 0 0 0 0 0
0 0 15 18 35 1 96 87 72 14 45 34 131 303 816 908 530 282 8 0 0 0 0 0 0 0 0 0 0 0 0 0
0 0 0 0 57 11 42 26 11 2 3 18 63 245 680 751 446 222 5 0 0 0 0 0 0 0 0 0 0 0 0 0
0 0 0 0 11 55 53 28 1 0 4 0 14 429 682 602 414 182 18 0 0 0 0 0 0 0 0 0 0 0 0 0
2 38 52 64 93 67 84 17 6 4 27 4 59 179 447 473 376 211 8 0 0 0 0 0 0 0 0 0 0 0 0 0
106 75 30 118 0 30 42 28 3 0 6 82 60 163 454 380 267 173 5 0 0 0 0 0 0 0 0 0 0 0 0 0
169 147 25 1 1 4 14 5 0 2 33 99 3 0 3 22 16 115 0 0 0 0 0 0 0 0 0 0 0 2 2 3
9 98 83 115 0 4 1 0 0 0 43 15 34 214 213 0 0 0 0 0 0 0 0 0 0 0 0 0 0 2 3 3
10 20 0 0 0 0 0 0 0 0 15 29 169 258 3 0 0 0 0 0 0 0 0 0 0 0 0 0 0 0 2 1
0 4 18 0 0 2 4 0 0 0 0 0 0 0 0 0 0 0 0 0 0 0 0 0 0 0 0 0 0 2 2 4
73 154 0 1 0 0 0 0 0 0 0 0 0 0 0 0 0 0 0 0 0 0 0 0 0 0 0 0 1 3 4 4
72 130 67 14 0 0 0 0 0 0 0 0 0 0 0 0 0 0 0 0 0 0 0 0 0 0 0 0 0 1 2 2
111 107 63 24 2 0 0 0 0 0 0 0 0 0 0 0 0 0 0 0 0 0 0 0 0 0 0 0 0 0 0 1
63 100 132 135 4 0 0 0 0 0 0 0 0 0 0 0 0 0 0 0 0 0 0 0 0 0 0 0 0 0 0 0
0 0 4 1 0 0 0 0 0 0 0 0 0 0 0 0 0 0 0 0 0 0 0 0 0 0 0 0 0 0 0 0
CIN
-0 -0 -0 -0 -0 -0 -0 -0 -0 -0 -129 -197 -321 -296 -217 -165 -89 -183 -139 -106 -255 -324 -342 -351 -298 -265 -214 -185 -214 -216 -153 -225
-0 -0 -0 -0 -0 -0 -0 -0 -0 -25 -94 -60 -129 -178 -146 -168 -100 -134 -128 -260 -348 -431 -441 -374 -525 -471 -261 -286 -137 -0 -0 -0
-0 -0 -0 -0 -0 -0 -0 -0 -5 -38 -42 -169 -152 -183 -125 -135 -128 -97 -215 -363 -451 -180 -0 -0 -0 -0 -0 -0 -0 -0 -0 -0
-0 -0 -0 -0 -0 -0 -0 -59 -123 -72 -53 -351 -263 -247 -146 -139 -144 -188 -306 -23 -0 -0 -0 -0 -0 -0 -0 -0 -0 -0 -0 -0
-44 -0 -0 -111 -40 -0 -90 -96 -61 -30 -39 -307 -332 -270 -180 -127 -163 -239 -372 -0 -0 -0 -0 -0 -0 -0 -0 -0 -0 -0 -0 -0
-0 -0 -50 -65 -123 -88 -81 -30 -35 -49 -69 -127 -205 -216 -204 -155 -180 -221 -379 -0 -0 -0 -0 -0 -0 -0 -0 -0 -0 -0 -0 -0
-0 -0 -0 -0 -85 -140 -92 -113 -57 -60 -98 -160 -161 -185 -179 -181 -220 -238 -268 -0 -0 -0 -0 -0 -0 -0 -0 -0 -0 -0 -0 -0
-0 -0 -2 -1 -144 -120 -131 -134 -30 -0 -166 -0 -75 -287 -248 -229 -251 -258 -324 -0 -0 -0 -0 -0 -0 -0 -0 -0 -0 -0 -0 -0
-21 -221 -135 -58 -68 -81 -87 -136 -75 -88 -100 -237 -230 -282 -236 -227 -252 -268 -119 -0 -0 -0 -0 -0 -0 -0 -0 -0 -0 -0 -0 -0
-74 -121 -34 -78 -0 -56 -115 -117 -54 -0 -130 -182 -183 -256 -270 -274 -235 -248 -178 -0 -0 -0 -0 -0 -0 -0 -0 -0 -0 -0 -0 -0
-42 -43 -43 -89 -127 -97 -82 -62 -0 -34 -151 -201 -239 -185 -310 -445 -156 -279 -8 -0 -0 -0 -0 -0 -0 -0 -0 -0 -0 -0 -0 -0
-124 -42 -28 -45 -0 -82 -9 -0 -0 -0 -156 -186 -270 -56 -80 -0 -0 -0 -0 -0 -0 -0 -0 -0 -0 -0 -0 -0 -0 -0 -0 -0
-77 -52 -0 -0 -0 -0 -0 -0 -0 -0 -161 -223 -136 -75 -34 -0 -0 -0 -0 -0 -0 -0 -0 -0 -0 -0 -0 -0 -0 -0 -0 -0
-0 -36 -37 -0 -0 -10 -4 -0 -0 -0 -0 -0 -0 -0 -0 -0 -0 -0 -0 -0 -0 -0 -0 -0 -0 -0 -0 -0 -0 -0 -0 -0
-49 -28 -0 -248 -0 -0 -0 -0 -0 -0 -0 -0 -0 -0 -0 -0 -0 -0 -0 -0 -0 -0 -0 -0 -0 -0 -0 -0 -1 -1 -0 -1
-103 -127 -155 -204 -33 -0 -0 -0 -0 -0 -0 -0 -0 -0 -0 -0 -0 -0 -0 -0 -0 -0 -0 -0 -0 -0 -0 -0 -0 -0 -0 -0
-105 -143 -177 -185 -215 -0 -0 -0 -0 -0 -0 -0 -0 -0 -0 -0 -0 -0 -0 -0 -0 -0 -0 -0 -0 -0 -0 -0 -0 -0 -0 -0
-36 -124 -122 -97 -190 -0 -0 -0 -0 -0 -0 -0 -0 -0 -0 -0 -0 -0 -0 -0 -0 -0 -0 -0 -0 -0 -0 -0 -0 -0 -0 -0
-3 -8 -167 -7 -0 -0 -0 -0 -0 -0 -0 -0 -0 -0 -0 -0 -0 -0 -0 -0 -0 -0 -0 -0 -0 -0 -0 -0 -0 -0 -0 -0
Wind_Speed
13 14 13 10 7 11 11 12 17 13 10 2 7 11 11 13 15 14 12 10 10 11 11 15 15 16 16 16 16 16 14 14
10 13 16 10 5 10 10 12 14 16 15 10 10 8 10 12 13 10 8 7 8 10 13 15 15 16 17 18 19 19 19 20
11 14 13 8 5 12 12 15 16 20 19 14 12 8 10 13 14 13 7 6 7 10 12 14 16 18 19 20 21 20 21 21
14 11 13 9 8 7 9 11 15 19 22 18 16 9 8 10 12 14 13 6 7 9 12 15 17 19 21 21 21 22 22 23
8 9 10 9 8 10 11 14 13 20 24 21 18 9 8 6 6 6 6 6 6 8 11 14 16 18 21 21 22 22 23 24
10 14 12 10 5 6 11 16 18 18 25 22 15 6 5 8 3 4 3 4 4 6 10 13 15 18 20 20 22 23 24 24
16 15 13 13 9 5 12 15 20 26 24 23 12 5 8 12 8 5 3 3 2 5 8 11 14 16 17 20 23 24 24 24
17 17 16 14 10 7 16 18 14 19 26 15 18 6 5 10 9 6 6 6 3 3 6 10 14 15 16 20 22 22 22 23
17 16 14 16 5 9 18 17 17 18 20 16 15 4 4 9 10 8 6 4 2 4 7 12 14 17 19 21 21 21 22 23
15 12 17 21 17 13 14 16 8 11 14 17 18 10 2 4 6 5 3 1 3 5 9 12 15 18 21 22 22 23 24 26
18 18 22 20 15 15 13 16 9 8 8 11 13 11 10 1 2 2 1 1 4 6 9 13 16 19 21 22 22 23 24 26
21 25 28 23 15 13 14 20 19 12 9 6 8 13 11 1 1 1 1 2 4 7 10 14 17 20 22 22 22 24 25 26
22 23 22 17 16 10 17 19 20 17 10 6 9 12 11 4 3 3 2 3 6 9 12 16 19 22 23 23 25 25 26 26
17 20 22 12 11 15 16 17 18 17 12 8 11 10 8 6 4 4 3 5 9 12 15 18 20 21 22 23 23 24 23 24
16 18 16 14 16 17 18 18 16 14 10 8 8 8 7 6 5 5 6 8 11 14 17 18 18 19 20 21 21 22 23 24
14 14 16 17 17 16 15 15 13 11 9 8 8 7 7 6 7 7 8 10 12 15 17 18 17 17 19 20 20 21 23 24
17 17 17 17 16 14 14 11 10 10 9 10 9 9 8 8 7 8 9 10 12 15 16 16 16 16 18 20 20 21 22 23
21 19 20 20 13 12 8 7 7 9 10 11 13 11 9 8 8 8 9 11 13 14 14 15 15 16 17 19 20 21 22 23
21 20 19 19 13 10 7 6 8 9 11 12 13 12 10 9 9 9 11 12 13 12 12 13 14 16 16 18 18 20 21 22
Wind_Direction
284 293 305 333 357 357 0 11 349 19 31 135 64 52 59 51 63 67 62 56 39 34 21 32 24 13 11 8 359 350 351 355
294 302 311 312 11 5 19 12 358 3 10 28 47 67 87 85 79 75 54 20 8 16 25 19 14 5 358 354 348 341 336 328
302 305 327 351 353 333 357 344 353 350 2 29 33 81 109 117 101 93 48 328 357 18 15 10 9 4 0 355 348 340 335 333
295 330 326 332 3 14 7 4 350 344 344 2 9 47 103 108 106 103 92 43 357 356 13 15 9 7 1 357 349 340 335 333
307 341 348 347 348 350 358 358 352 337 334 344 355 28 96 104 104 91 77 53 33 19 6 8 18 13 2 355 350 345 342 339
282 306 327 333 354 10 350 340 342 341 329 337 355 42 71 120 121 108 76 71 35 25 13 15 14 9 6 1 352 347 344 344
292 304 314 324 322 346 329 345 339 331 330 329 358 60 121 130 123 118 109 100 43 16 20 13 9 12 11 2 352 346 346 345
286 297 303 306 321 333 313 329 344 341 317 350 336 22 114 133 137 145 138 132 102 65 24 6 1 8 6 358 352 353 351 351
290 298 304 295 306 321 312 329 341 341 331 341 342 9 131 142 150 149 153 138 47 5 0 357 357 354 352 351 351 351 350 348
299 301 292 292 318 328 317 330 351 360 350 330 320 330 338 143 153 150 142 87 31 14 0 353 351 347 346 345 345 345 345 344
292 287 299 300 316 322 322 330 344 349 8 348 340 343 323 334 159 167 156 46 20 3 355 349 347 345 344 342 343 344 345 344
292 286 288 303 319 328 333 319 331 344 347 352 358 328 335 39 59 5 359 4 5 358 352 348 345 344 341 341 343 341 344 342
288 290 299 311 320 337 314 320 329 336 345 339 335 336 353 36 12 20 40 4 354 351 344 343 339 337 337 339 339 343 342 343
297 293 293 319 323 316 324 330 334 339 342 345 344 2 25 40 44 49 22 351 342 339 338 338 339 341 340 341 345 347 349 348
299 301 311 302 310 312 321 327 335 345 1 10 17 24 40 39 21 357 346 339 339 337 337 341 345 346 343 346 349 350 351 350
310 310 306 304 306 319 330 336 356 10 24 22 25 29 8 355 337 335 337 338 338 338 338 341 346 347 347 348 351 351 349 350
306 306 306 311 313 322 331 348 6 9 12 8 13 1 0 343 335 336 339 340 341 341 342 345 350 350 351 351 354 351 351 350
295 304 305 313 318 324 340 0 7 11 2 352 350 358 355 351 352 349 346 345 344 347 349 351 352 350 352 353 353 351 351 351
298 309 310 313 315 320 330 353 359 360 356 355 353 360 1 360 356 352 346 346 346 351 355 356 355 352 352 353 354 354 353 354